Location: Bussy-Saint-Georges
(48.8410°N, 2.7017°E)
Time: 04:05:26
(UTC+00:00)

H-2A R/B - Pass Details

Date: 18 October 2021
Orbit: 577 x 654 km, 98.5° (Epoch: 30 November)

Event Time Altitude Azimuth Distance (km) Brightness Sun altitude
Rises 18:44:47 0° 16° (NNE) 2,806 5.3 -19.0°
Reaches altitude 10° 18:46:57 10° 19° (NNE) 1,904 4.4 -19.4°
Maximum altitude 18:51:04 71° 104° (ESE) 621 1.8 -20.0°
Drops below altitude 10° 18:55:10 10° 188° (S) 1,908 4.6 -20.7°
Sets 18:57:20 0° 191° (S) 2,814 5.5 -21.1°
